When you browse on this site, cookies collect data to enhance your experience and personalize the content and advertising you see.
Visit our Privacy Policy to learn more. By continuing to use the site, you agree to this use of cookies and data.
  • In Hungary
  • List of Countries
  • For 7 days
  • Water Temperature
  • Weather Map
  • News
  • Weather Widgets
  • user-avatar
    Login

    Hourly Weather Sol'-Iletsk

    Today, 18 November, Monday

    Time Temperature Precipitation Wind Pressure Humidity
    00:00 -4°C° 0 mm 3 mps 763 mmHg 95%
    01:00 -2°C° 0 mm 3 mps 762 mmHg 96%
    02:00 -2°C° 0 mm 3 mps 762 mmHg 95%
    03:00 -2°C° 0 mm 3 mps 763 mmHg 94%
    04:00 -1°C° 0 mm 3 mps 763 mmHg 93%
    05:00 -1°C° 0 mm 2 mps 762 mmHg 93%
    06:00 -1°C° 0 mm 2 mps 762 mmHg 93%
    07:00 -1°C° 0 mm 2 mps 762 mmHg 93%
    08:00 -1°C° 0 mm 2 mps 762 mmHg 92%
    09:00 -1°C° 0 mm 2 mps 762 mmHg 91%
    10:00 +1°C° 0 mm 2 mps 762 mmHg 90%
    11:00 0°C° 0 mm 3 mps 762 mmHg 90%
    12:00 0°C° 0 mm 3 mps 762 mmHg 89%
    13:00 0°C° 0 mm 3 mps 761 mmHg 89%
    14:00 0°C° 0 mm 3 mps 761 mmHg 90%
    15:00 0°C° 0 mm 3 mps 761 mmHg 90%
    16:00 0°C° 0 mm 3 mps 761 mmHg 91%
    17:00 0°C° 0 mm 3 mps 760 mmHg 91%
    18:00 0°C° 0 mm 3 mps 760 mmHg 92%
    19:00 0°C° 0 mm 3 mps 760 mmHg 93%
    20:00 0°C° 0 mm 3 mps 759 mmHg 92%
    21:00 0°C° 0 mm 3 mps 759 mmHg 92%
    22:00 -1°C° 0 mm 4 mps 759 mmHg 92%
    23:00 -1°C° 0.1 mm 4 mps 758 mmHg 93%

    Tomorrow, 19 November, Tuesday

    Time Temperature Precipitation Wind Pressure Humidity
    00:00 -1°C° 0.1 mm 4 mps 758 mmHg 95%
    01:00 -1°C° 0.1 mm 4 mps 757 mmHg 96%
    02:00 -2°C° 0.2 mm 4 mps 757 mmHg 95%
    03:00 -2°C° 0.2 mm 4 mps 757 mmHg 94%
    04:00 -2°C° 0.2 mm 4 mps 757 mmHg 94%
    05:00 -2°C° 0.1 mm 4 mps 756 mmHg 94%
    06:00 -1°C° 0.1 mm 4 mps 756 mmHg 94%
    07:00 -1°C° 0.1 mm 4 mps 756 mmHg 94%
    08:00 -1°C° 0 mm 4 mps 756 mmHg 94%
    09:00 0°C° 0 mm 4 mps 756 mmHg 93%
    10:00 0°C° 0 mm 4 mps 757 mmHg 93%
    11:00 0°C° 0 mm 4 mps 757 mmHg 93%
    12:00 0°C° 0 mm 4 mps 757 mmHg 93%
    13:00 0°C° 0 mm 4 mps 757 mmHg 93%
    14:00 -2°C° 0.2 mm 5 mps 757 mmHg 92%
    15:00 -4°C° 0.2 mm 6 mps 758 mmHg 90%
    16:00 -7°C° 0.2 mm 7 mps 758 mmHg 89%
    17:00 -8°C° 0.1 mm 7 mps 759 mmHg 88%
    18:00 -9°C° 0.1 mm 7 mps 759 mmHg 88%
    19:00 -12°C° 0.1 mm 7 mps 760 mmHg 87%
    20:00 -12°C° 0.1 mm 8 mps 760 mmHg 84%
    21:00 -13°C° 0.1 mm 8 mps 761 mmHg 81%
    22:00 -15°C° 0.1 mm 8 mps 762 mmHg 79%
    23:00 -15°C° 0 mm 8 mps 762 mmHg 75%

    Day after tomorrow, 20 November, Wednesday

    Time Temperature Precipitation Wind Pressure Humidity
    00:00 -16°C° 0 mm 8 mps 763 mmHg 70%
    01:00 -15°C° 0 mm 7 mps 763 mmHg 66%
    02:00 -17°C° 0 mm 7 mps 764 mmHg 65%
    03:00 -17°C° 0 mm 7 mps 764 mmHg 63%
    04:00 -18°C° 0 mm 7 mps 765 mmHg 61%
    05:00 -19°C° 0 mm 7 mps 765 mmHg 62%
    06:00 -19°C° 0 mm 7 mps 766 mmHg 63%
    07:00 -20°C° 0 mm 7 mps 766 mmHg 63%
    08:00 -20°C° 0 mm 7 mps 767 mmHg 61%
    09:00 -19°C° 0 mm 7 mps 767 mmHg 60%
    10:00 -19°C° 0 mm 7 mps 768 mmHg 58%
    11:00 -19°C° 0 mm 7 mps 768 mmHg 57%
    12:00 -19°C° 0 mm 7 mps 768 mmHg 56%
    13:00 -18°C° 0 mm 7 mps 769 mmHg 55%
    14:00 -18°C° 0 mm 7 mps 769 mmHg 56%
    15:00 -17°C° 0 mm 6 mps 769 mmHg 57%
    16:00 -18°C° 0 mm 6 mps 770 mmHg 59%
    17:00 -18°C° 0 mm 6 mps 770 mmHg 60%
    18:00 -18°C° 0 mm 6 mps 770 mmHg 61%
    19:00 -20°C° 0 mm 6 mps 771 mmHg 63%
    20:00 -20°C° 0 mm 6 mps 771 mmHg 64%
    21:00 -20°C° 0 mm 6 mps 772 mmHg 66%
    22:00 -19°C° 0 mm 5 mps 772 mmHg 68%
    23:00 -19°C° 0 mm 5 mps 772 mmHg 69%

    21 November, Thursday

    Time Temperature Precipitation Wind Pressure Humidity
    00:00 -18°C° 0 mm 4 mps 772 mmHg 70%
    01:00 -18°C° 0 mm 4 mps 772 mmHg 71%
    02:00 -18°C° 0 mm 4 mps 772 mmHg 71%
    03:00 -18°C° 0 mm 4 mps 772 mmHg 71%
    04:00 -18°C° 0 mm 4 mps 773 mmHg 71%
    05:00 -17°C° 0 mm 3 mps 773 mmHg 72%
    06:00 -17°C° 0 mm 3 mps 773 mmHg 72%
    07:00 -17°C° 0 mm 3 mps 773 mmHg 73%
    08:00 -16°C° 0 mm 3 mps 773 mmHg 69%
    09:00 -15°C° 0 mm 3 mps 773 mmHg 65%
    10:00 -15°C° 0 mm 3 mps 773 mmHg 62%
    11:00 -13°C° 0 mm 3 mps 773 mmHg 58%
    12:00 -12°C° 0 mm 3 mps 773 mmHg 55%
    13:00 -10°C° 0 mm 3 mps 772 mmHg 51%
    14:00 -9°C° 0 mm 2 mps 772 mmHg 55%
    15:00 -9°C° 0 mm 2 mps 772 mmHg 58%
    16:00 -10°C° 0 mm 2 mps 771 mmHg 62%
    17:00 -10°C° 0 mm 2 mps 771 mmHg 64%
    18:00 -10°C° 0 mm 2 mps 771 mmHg 66%
    19:00 -13°C° 0 mm 3 mps 771 mmHg 68%
    20:00 -13°C° 0 mm 3 mps 771 mmHg 68%
    21:00 -13°C° 0 mm 3 mps 771 mmHg 68%
    22:00 -13°C° 0 mm 3 mps 771 mmHg 69%
    23:00 -13°C° 0 mm 3 mps 771 mmHg 69%

    22 November, Friday

    Time Temperature Precipitation Wind Pressure Humidity
    00:00 -14°C° 0 mm 4 mps 770 mmHg 69%
    01:00 -14°C° 0 mm 4 mps 770 mmHg 70%
    02:00 -14°C° 0 mm 4 mps 770 mmHg 70%
    03:00 -14°C° 0 mm 4 mps 770 mmHg 69%
    04:00 -14°C° 0 mm 4 mps 770 mmHg 69%
    05:00 -14°C° 0 mm 4 mps 770 mmHg 68%
    06:00 -14°C° 0 mm 4 mps 770 mmHg 68%
    07:00 -13°C° 0 mm 3 mps 770 mmHg 68%
    08:00 -12°C° 0 mm 4 mps 770 mmHg 63%
    09:00 -11°C° 0 mm 4 mps 770 mmHg 58%
    10:00 -10°C° 0 mm 4 mps 770 mmHg 53%
    11:00 -9°C° 0 mm 4 mps 770 mmHg 49%
    12:00 -9°C° 0 mm 4 mps 770 mmHg 46%
    13:00 -7°C° 0 mm 3 mps 770 mmHg 42%
    14:00 -7°C° 0 mm 3 mps 770 mmHg 45%
    15:00 -6°C° 0 mm 2 mps 770 mmHg 48%
    16:00 -7°C° 0 mm 2 mps 770 mmHg 51%
    17:00 -7°C° 0 mm 2 mps 770 mmHg 53%
    18:00 -8°C° 0 mm 2 mps 770 mmHg 54%
    19:00 -8°C° 0 mm 2 mps 770 mmHg 56%
    20:00 -8°C° 0 mm 2 mps 770 mmHg 58%
    21:00 -8°C° 0 mm 2 mps 770 mmHg 59%
    22:00 -8°C° 0 mm 2 mps 770 mmHg 60%
    23:00 -9°C° 0 mm 2 mps 770 mmHg 61%

    23 November, Saturday

    Time Temperature Precipitation Wind Pressure Humidity
    00:00 -9°C° 0 mm 2 mps 770 mmHg 62%
    01:00 -9°C° 0 mm 2 mps 770 mmHg 63%
    02:00 -9°C° 0 mm 2 mps 770 mmHg 65%
    03:00 -8°C° 0 mm 1 mps 770 mmHg 67%
    04:00 -8°C° 0 mm 1 mps 770 mmHg 68%
    05:00 -8°C° 0 mm 1 mps 770 mmHg 70%
    06:00 -8°C° 0 mm 1 mps 770 mmHg 71%
    07:00 -8°C° 0 mm 1 mps 770 mmHg 72%
    08:00 -8°C° 0 mm 1 mps 770 mmHg 69%
    09:00 -7°C° 0 mm 1 mps 770 mmHg 66%
    10:00 -6°C° 0 mm 1 mps 770 mmHg 64%
    11:00 -6°C° 0 mm 2 mps 770 mmHg 60%
    12:00 -6°C° 0 mm 2 mps 769 mmHg 57%
    13:00 -5°C° 0 mm 2 mps 769 mmHg 54%
    14:00 -5°C° 0 mm 2 mps 769 mmHg 55%
    15:00 -6°C° 0 mm 2 mps 769 mmHg 55%
    16:00 -6°C° 0 mm 2 mps 768 mmHg 56%
    17:00 -7°C° 0 mm 2 mps 768 mmHg 56%
    18:00 -7°C° 0 mm 2 mps 768 mmHg 56%
    19:00 -8°C° 0 mm 2 mps 768 mmHg 56%
    20:00 -8°C° 0 mm 2 mps 768 mmHg 57%
    21:00 -8°C° 0 mm 2 mps 768 mmHg 58%
    22:00 -9°C° 0 mm 2 mps 768 mmHg 59%
    23:00 -9°C° 0 mm 2 mps 768 mmHg 59%
    Show more